Starlink 31000

operational
NORAD ID: 58488 Int'l Des: 2023-186 Owner: SPXS Country: US Constellation: starlink
LEOCIRCULAR

关于 Starlink 31000

正在加载描述...

实时位置

正在加载3D地球...

即将过境

高度历史

Altitude vs Time

uPlot chart will show altitude changes over time

两行轨道根数

1 58488U 23186R 25307.92230686 .00000564 00000-0 56802-4 0 9996
2 58488 43.0033 30.7618 0001134 280.8260 79.2455 15.02533942106922
Epoch: Nov 3, 2025 • Age: 15 hours

当前状态

高度 561.1 km
速度 7.59 km/s
星下点 35.12°N, 159.18°W
发射日期 Dec 3, 2023
运行时间 1.9 years
类型 internet

技术详情

分类 Payload
质量 730.00 kg
干质量 700.00 kg
总质量 730.00 kg
长度 0.30 m
直径 4.10 m
跨度 29.00 m
形状 Box + pan
制造商 SPXS
平台类型 Starlink V2M
阶段状态 In Orbit
所有者/国家 SPXS/US

大型星座

Loading constellations...